Regional Weather Roundup
Issued by NWS

Home | Current Version | Previous Version | Text Only | Print | Product List | Glossary Off
Versions: 1 2 3 4 5 6 7 8 9 10 11 12 13 14 15 16 17 18 19 20 21 22 23 24 25 26 27 28 29 30 31 32 33 34 35 36 37 38 39 40 41 42 43 44 45 46 47 48 49 50

000
ASUS43 KLSX 270707
RWRMO

WEATHER SUMMARY FOR MISSOURI
NATIONAL WEATHER SERVICE SPRINGFIELD MO
100 AM CST FRI FEB 27 2015

NOTE: "FAIR" INDICATES FEW OR NO CLOUDS BELOW 12,000 FEET WITH NO
       SIGNIFICANT WEATHER AND/OR OBSTRUCTIONS TO VISIBILITY.
       CURRENT SKY AND/OR WEATHER CONDITIONS ARE NOT AVAILABLE FOR
       CHILLICOTHE AND FARMINGTON.

MOZ001>031-035>038-043-044-053-054-270800-
...NORTHERN AND WESTERN MISSOURI...

CITY           SKY/WX    TMP DP  RH WIND       PRES   REMARKS
KANSAS CTY INT CLEAR      3  -4  72 N8        30.58S WCI -10
KANSAS C DTWN  CLEAR      7  -4  60 N12       30.61S WCI  -8
LEE`S SUMMIT   CLEAR      5  -3  69 N7        30.58R WCI  -7
ST JOSEPH      CLEAR      0  -4  83 CALM      30.62S
CHILLICOTHE      N/A      3  -4  72 NW3       30.61S
KIRKSVILLE     CLEAR     -2  -6  83 W5        30.56R WCI -12

$$
MOZ066>068-077>081-088>096-101>105-270800-
...SOUTHWEST MISSOURI...

CITY           SKY/WX    TMP DP  RH WIND       PRES   REMARKS
SPRINGFIELD    PTCLDY    13   2  61 N12       30.48S WCI  -1
JOPLIN         PTCLDY    14   3  61 NE8       30.54R WCI   3

$$
MOZ032>034-039>042-045>050-055>058-069>072-270800-
...CENTRAL MISSOURI...

CITY           SKY/WX    TMP DP  RH WIND       PRES   REMARKS
COLUMBIA       CLEAR      6  -2  69 N9        30.56R WCI  -8
JEFFERSON CITY CLEAR      9  -3  58 N10       30.59R WCI  -5
ROLLA          CLEAR      7  -2  66 N9        30.49R WCI  -7
SEDALIA        CLEAR      8   0  69 N7        30.59R WCI  -3
WHITEMAN AFB   CLEAR      6  -1  72 N8        30.58R WCI  -7
WARRENSBURG    CLEAR      7   0  72 N8        30.60S WCI  -6
OSAGE BEACH    CLEAR     10   1  67 N5        30.53S WCI   2

$$
MOZ051-052-059>065-270800-
...EAST CENTRAL MISSOURI...

CITY           SKY/WX    TMP DP  RH WIND       PRES   REMARKS
ST LOUIS INTL  CLEAR      8  -3  61 N10       30.56R WCI  -6
SPIRIT OF STL  CLEAR      8  -3  61 N13       30.56R WCI  -8
ST CHARLES     CLEAR      6  -3  66 NW10      30.57R WCI  -9

$$
MOZ072>076-082>087-097>100-106>115-270800-
...SOUTH CENTRAL AND SOUTHEAST MISSOURI...

CITY           SKY/WX    TMP DP  RH WIND       PRES   REMARKS
CAPE GIRARDEAU CLEAR     18   8  65 N15       30.51R WCI   4
FARMINGTON     CLEAR     10   0  61 N6        30.51R WCI   1
POPLAR BLUFF   CLEAR     19   7  59 N9        30.50R WCI   8
WEST PLAINS    CLEAR     13   3  64 N6        30.47R WCI   4

$$



USA.gov is the U.S. government's official web portal to all federal, state and local government web resources and services.